Location: Edoum�
(0.9447°N, 10.6482°E)
Time: 01:18:21
(UTC+00:00)

Genesis I - Pass Details

Date: 07 June 2020
Orbit: 507 x 516 km, 64.5° (Epoch: 13 July)

Event Time Altitude Azimuth Distance (km) Brightness Sun altitude
Exits shadow 04:43:08 - 211° (SSW) 2,253 6.0 -7.3°
Reaches altitude 10° 04:44:25 10° 214° (SSW) 1,738 5.4 -7.0°
Maximum altitude 04:48:14 55° 292° (WNW) 619 3.4 -6.1°
Drops below altitude 10° 04:52:02 10° 11° (N) 1,731 6.4 -5.2°
Sets 04:54:14 0° 15° (NNE) 2,614 7.4 -4.7°
